"Pseudo-MPEC" for C2F4212

Created 2020 Mar 27 3:07:10 UT using Find_Orb

Click here for an explanation of pseudo-MPECs

 
 Astrometry: 
     C2F4212  C2020 03 25.41513 15 31 10.56 +14 55 05.9    ~3PAb 19.4 GVNEOCPG96
     C2F4212  C2020 03 25.42024 15 30 56.09 +14 50 50.5    ~3PAb 19.4 GVNEOCPG96
     C2F4212  C2020 03 25.42535 15 30 41.64 +14 46 33.6    ~3PAb 19.4 GVNEOCPG96
     C2F4212  C2020 03 25.43047 15 30 27.14 +14 42 16.9    ~3PAb 19.4 GVNEOCPG96
     C2F4212  C2020 03 25.46830 15 28 40.07 +14 10 32.5    ~3PBb 18.8 GVNEOCPI52
     C2F4212  C2020 03 25.46869 15 28 38.99 +14 10 12.8    ~3PBb 18.9 GVNEOCPI52
     C2F4212  C2020 03 25.46907 15 28 37.91 +14 09 53.3    ~3PBb 18.8 GVNEOCPI52
     C2F4212  C2020 03 25.46946 15 28 36.78 +14 09 34.2    ~3PBb 18.9 GVNEOCPI52
     C2F4212  C2020 03 25.46985 15 28 35.71 +14 09 14.1    ~3PBb 18.8 GVNEOCPI52
     C2F4212  C2020 03 25.47024 15 28 34.62 +14 08 54.6    ~3PBb 19.0 GVNEOCPI52
     C2F4212  C2020 03 25.47062 15 28 33.49 +14 08 35.2    ~3PBb 18.9 GVNEOCPI52
     C2F4212  C2020 03 25.47101 15 28 32.42 +14 08 15.9    ~3PBb 18.8 GVNEOCPI52
     C2F4212  C2020 03 25.51379 15 26 31.51 +13 32 01.3    ~3PCb 18.8 GVNEOCPI52
     C2F4212  C2020 03 25.51418 15 26 30.42 +13 31 40.9    ~3PCb 18.5 GVNEOCPI52
     C2F4212  C2020 03 25.51457 15 26 29.33 +13 31 21.4    ~3PCb 18.5 GVNEOCPI52
     C2F4212  C2020 03 25.93603 15 07 42.61 +07 23 21.3    ~3PNq 20.1 VVNEOCP033
     C2F4212  C2020 03 25.93637 15 07 41.72 +07 23 03.1    ~3PNq 20.0 VVNEOCP033
     C2F4212  C2020 03 25.93716 15 07 39.50 +07 22 20.7    ~3PNq 19.7 VVNEOCP033
     C2F4212 KC2020 03 25^io:9sW`K#jH[rg9M!YKoIF+py#V68:-/sZfY+i$!k_t2xG31s\4B49
     C2F4212 KC2020 03 25sg*Lj`c(Ci/IOOU-0cF*uD,c/YEC,3'YAstrometryWgv`Bs)+iSB49
     C2F4212 KC2020 03 25.96946515 06 12.28 +06 53 42.6    ~3PNq 19.2 GVNEOCPJ95
     C2F4212 KC2020 03 25.97371515 06 00.63 +06 49 57.2    ~3PNq 18.9 GVNEOCPJ95
     C2F4212 KC2020 03 25.97854015 05 47.40 +06 45 40.8    ~3PNq 18.5 GVNEOCPJ95
     C2F4212 KC2020 03 25[bSrqLWlqcUZv!$(h+aEM7_I0iTyvir8wx0nJA`u^pVZK4=m?X8lZ99
     C2F4212 KC2020 03 25pR;uJZqmRcj*s^Toy*SI:htN+gmcY:Yredacted;e/:`3t1'tq0HZ99
     C2F4212 KC2020 03 25.98315615 05 34.69 +06 41 35.9    ~3PNq 18.9 GVNEOCPJ95
     C2F4212 KC2020 03 250d=cHJ2b8`6C'^a`R@LaZfO.RV4L'DNkcET1p@t.0,-nmHFgNb:kZ99
     C2F4212 KC2020 03 26.00595 15 04 32.86 +06 21 50.7    ~3Q0b 19.2 VqNEOCPI93
     C2F4212 KC2020 03 26.00868 15 04 25.33 +06 19 25.1    ~3Q0b 19.2 VqNEOCPI93
     C2F4212 KC2020 03 26.01189 15 04 16.46 +06 16 34.5    ~3Q0b 18.8 VqNEOCPI93
     C2F4212 KC2020 03 26.01281315 04 12.83 +06 15 18.9    ~3Q2b 18.7 GVNEOCPZ80
     C2F4212 KC2020 03 26.01860015 03 56.85 +06 10 10.9    ~3Q2b 19.0 GVNEOCPZ80
     C2F4212 KC2020 03 260l!ys(CGN`m\r=#l%]V1k%XmKAg5Xf\3eUcVDI#u@]gFAD1fIjYNB15
     C2F4212 KC2020 03 26jTpFi(2KRZ2okVrnclick6n5t[5oYF[\j:14n[Z7=GcYSwEHh!@]B15
     C2F4212 KC2020 03 26l4L@J;5);p@,d+t2fhere/#)V@=/b1`QC0@IPjeMZ5mfSx:?dIBHB15
     C2F4212 KC2020 03 26%ceh'Mygk+eUKh+o-JBg96-l4G1Sq.UPq@sRGrs9W8n('Twh$@/rB15
     C2F4212  C2020 03 26.12066 14 59 12.04 +04 39 30.1    ~3Q37 20.5 VVNEOCP033
     C2F4212  C2020 03 26.12100 14 59 11.11 +04 39 12.0    ~3Q37 20.5 VVNEOCP033
     C2F4212  C2020 03 26.12134 14 59 10.17 +04 38 53.7    ~3Q37 20.8 VVNEOCP033
     C2F4212 KC2020 03 260pdx=P+h8`s/l;(d4ABMi$.wVPVP_N`Ul8LvD;4*hCeZ^GxMh@1yH21
     C2F4212 KC2020 03 26b/U8e+QmE,_72\[Mp@;:_OR,N%NHY9GAHV3g;dZ`Jtx]V3dSZtl/H21
     C2F4212 KC2020 03 26Mx],`f@-aBdOd%mx@rrrU(+s/9-)+qV^T=d:]^x'@Mkyui?mkHDwH21
     C2F4212 KC2020 03 26uSj)]Omg.d,#GjYFqyMxH`;/=F`9T*vkZv^G^IS;JxtpIsDfrljbH21
     C2F4212 KC2020 03 26(S%(nr\xnM2DfZ)igD9??0il./T5.=vy0n\.c/A-OUjviXbB_TPn850
     C2F4212 KC2020 03 26s^)[UwQyaE5JbEkpN:mPfor)KFkm+wSs56.j6,AjmA%=)$bySnGw850
     C2F4212 KC2020 03 26KmCrSCI,p^C$O3dJWXk7OuexplanationolNHbBH/tMW=y0`H0a9850
     C2F4212 KC2020 03 264j'y:^1`O:5E`cGI`J24wiQwykyp!`ciPjBE)S_XHt#.7%WwOj1L850
     C2F4212 KC2020 03 263#3aW]bqF,HkNGt(,,*Zd8qiJIn4D'QnlYQUPxaRiiS=q9IUsgnk850
     C2F4212 KC2020 03 26VrnNf(MG3ObG5lEPyh?R+kF/F?vnd-fX5,;bTNkJ.-qCqMS_m_k8850
     C2F4212 KC2020 03 26.99616414 21 22.01 -07 57 43.9    ~3R0M 19.0 GVNEOCPJ95
     C2F4212 KC2020 03 26.99835714 21 16.37 -07 59 31.4    ~3R0M 19.3 GVNEOCPJ95
     C2F4212 KC2020 03 27.00336314 21 03.47 -08 03 37.1    ~3R0M 19.1 GVNEOCPJ95
     C2F4212 KC2020 03 27.00622014 20 56.16 -08 05 56.8    ~3R0M 18.9 GVNEOCPJ95
     C2F4212 bC2020 03 27+T^KPS57snMc547[8hcwBZKutr[e0fsHkIU'aOOh/8Ww)85)[x'#L01
     C2F4212 bC2020 03 273,S-$hLhTEjHF[cOdQ8/5_G$C\V$`i09vh'05!TiJJ3)4eujN0POL01
     C2F4212 bC2020 03 27hM2EQr4;ee]FAG5C!%mVOZ9dE5.ME^#4e53paG1fH.o;QK@x'JX@L01
     C2F4212 bC2020 03 274$UB+U[.CwVq8W\rD+xRT:]%4[,^9MLq\I#7^e4^=jU/Hl(lwxQtL01
     C2F4212  C2020 03 27.02173 14 20 13.73 -08 18 34.9    ~3R17 20.1 VVNEOCP033
     C2F4212  C2020 03 27.02207 14 20 12.85 -08 18 51.3    ~3R17 20.3 VVNEOCP033
     C2F4212  C2020 03 27.09652 14 17 01.91 -09 18 48.1    ~3R37 20.4 VVNEOCP033
     C2F4212  C2020 03 27.09686 14 17 01.04 -09 19 04.6    ~3R37 20.5 VVNEOCP033

Station data:
(033) Karl Schwarzschild Observatory, Tautenburg  (N50.980140 E11.711240)
   Germany. 1.3-m Schmidt.
(850) Cordell-Lorenz Observatory, Sewanee  (N35.204094 W85.919800)
   US/Tennessee.  Observer D. T. Durig. 0.3-m f/5.0 Schmidt-Cassegrain + CCD.
(B15) Inastars Observatory, Potsdam (since 2006)  (N52.423524 E13.012900)
   Germany.
(B49) Paus Observatory, Sabadell  (N41.551035 E2.112500)  Spain.
(G96) Mt. Lemmon Survey  (N32.442754 W110.788720)  US/Arizona.  Observers T.
   A. Pruyne, B. M. Africano, E. J. Christensen, G. A. Farneth, D. C. Fuls,
   A. R. Gibbs, A. D. Grauer, H. Gröller, J. A. Johnson, R. A. Kowalski, S.
   M. Larson, G. J. Leonard, D. Rankin, R. L. Seaman, F. C. Shelly. 1.5-m
   reflector + 10K CCD.
(H21) Astronomical Research Observatory, Westfield  (N39.483057 W87.968270)
   US/Illinois. 0.76-m f/3.0 astrograph + CCD.
(I52) Steward Observatory, Mt. Lemmon Station  (N32.442547 W110.788920)
   US/Arizona.  Observers T. A. Pruyne, B. M. Africano, E. J. Christensen, G.
   A. Farneth, D. C. Fuls, A. R. Gibbs, A. D. Grauer, H. Gröller, J. A.
   Johnson, R. A. Kowalski, S. M. Larson, G. J. Leonard, D. Rankin, R. L.
   Seaman, F. C. Shelly. 1.0-m reflector + CCD.
(I93) St Pardon de Conques  (N44.558710 W0.203000)  France.  Observer F.
   Losse. 0.40-m f/3.7 reflector + CCD.
(J95) Great Shefford  (N51.474969 W1.447003)  UK.  Observer P. Birtwhistle.
   0.40-m f/6.0 Schmidt-Cassegrain + CCD.
(L01) Višnjan Observatory, Tičan  (N45.290900 E13.749300)  Croatia.
   Observers K. Korlević, E. Pettarin. Measurer E. Pettarin. 1.0-m f/2.9
   reflector + CCD.
(Z80) Northolt Branch Observatory  (N51.554661 W0.371920)  UK.  Observer G.
   Wells. Measurer D. Bamberger. 0.25-m f/8 Ritchey-Chrétien + CCD.
(Z99) Clixby Observatory, Cleethorpes  (N53.546062 W0.021260)  UK.

Orbital elements:  C2F4212
   Perihelion 2020 Feb 7.282988 +/- 0.0263 TT =  6:47:30 (JD 2458886.782988)
Epoch 2020 Mar 27.0 TT = JDT 2458935.5   Earth MOID: 0.0247   Ma: 0.0685
M  29.11903069 +/- 0.044            (J2000 ecliptic)          AutoNEOCP
n   0.59771790 +/- 0.000598         Peri.  118.66040 +/- 0.024
a   1.39574218 +/- 0.000932         Node     7.68863 +/- 0.0006
e   0.3672467 +/- 0.000421          Incl.   27.18627 +/- 0.019
P   1.65/602.28d           H 25.4   G  0.15   U  7.8  
q 0.88316041 +/- 3.63e-6    Q 1.90832394 +/- 0.00186
From 61 observations 2020 Mar. 25-27 (40.4 hr); mean residual 0".45
Residuals in arcseconds: 
200325 G96  .13-  .19+    200325 J95  .08-  .17+    200326 H21  .40+  .49+    
200325 G96  .33-  .35+    200325 J95  .34+  .08-    200326 850  .33-  .00     
200325 G96  .19-  .70-    200325 Z99  .21+  .13+    200326 850  .69-  .20-    
200325 G96  .32-  .74-    200325 Z99  .04+  .29-    200326 850  .18-  .41+    
200325 I52  .05+  .25+    200325 J95  .05+  .16+    200326 850  .52+  .85+    
200325 I52  .40+  .27+    200325 Z99  .10-  .25-    200326 850  .37-  .29-    
200325 I52  .33+  .01-    200326 I93  .45-  .07+    200326 850  .44-  .06-    
200325 I52  .05-  .62+    200326 I93  .11-  .35-    200326 J95  .26+  .26+    
200325 I52  .44+  .25+    200326 I93  .09+  .22-    200326 J95  .19+  .25+    
200325 I52  .64+  .48+    200326 Z80  .26+  .34-    200327 J95  .37-  .27-    
200325 I52  .15-  .30+    200326 Z80  .08+  .41-    200327 J95  .08+  .16-    
200325 I52  .34+  .74+    200326 B15  .01+  .04+    200327 L01  .79-  .17-    
200325 I52  .20+  .31+    200326 B15  .19+  .23+    200327 L01  .21+  .20-    
200325 I52  .35+  .18-    200326 B15  .95+  1.1+    200327 L01  .10+  .02+    
200325 I52  .49+  .23+    200326 B15  .81+  1.1+    200327 L01  .50-  .43-    
200325 033  .48-  .23-    200326 033  .67-  .63-    200327 033  .18+  .22-    
200325 033  .19+  .42-    200326 033  .54-  .57-    200327 033  .11+  .05-    
200325 033  .51-  .97-    200326 033  .55-  .71-    200327 033  .23-  .10-    
200325 B49  .42+  1.6-    200326 H21  .31+  .68+    200327 033  .27-  .31-    
200325 B49  1.6-  .49-    200326 H21  .37+  .10+    
200325 J95  .40-  .00     200326 H21  .58+  .52+    

Ephemerides (geocentric):
Date (UTC) HH   RA              Dec         delta   r     elong  mag " sig PA
---- -- -- --  -------------   -----------  ------ ------ -----  --- ---- ---
2020 03 27 03  14 15 55.027   -09 37 25.74  .03122 1.0254 151.4 19.1 .217 161
2020 03 27 04  14 14 12.419   -10 10 21.69  .03135 1.0256 151.8 19.1 .219 161
2020 03 27 05  14 12 30.314   -10 42 59.05  .03148 1.0258 152.1 19.1 .221 161
2020 03 27 06  14 10 48.720   -11 15 17.43  .03162 1.0261 152.4 19.1 .222 162
2020 03 27 07  14 09 07.645   -11 47 16.43  .03177 1.0263 152.7 19.1 .224 162
2020 03 27 08  14 07 27.094   -12 18 55.70  .03191 1.0265 152.9 19.1 .226 163
2020 03 27 09  14 05 47.075   -12 50 14.92  .03207 1.0267 153.2 19.1 .227 163
2020 03 27 10  14 04 07.595   -13 21 13.80  .03222 1.0269 153.4 19.1 .229 163
